Flag for Canada Weather past 2 weeks in Mississauga, Ontario, Canada

Now
63 °F

Fog.


Feels Like: 63 °F
Forecast: 60 / 72 °F
Wind: No wind

Location: Toronto Pearson International Airport

Current Time: Jul 1, 2015 at 1:03:11 AM

Latest Report: Jul 1, 2015 at 12:00 AM


Visibility: 4 mi

Pressure: 29.75 "Hg

Humidity: 94%

Dew point: 61 °F

Location of MississaugaLocation

Historic Weather in Mississauga — Graph

°F

Mississauga temperature yesterday

Maximum temperature yesterday: 68 °F (at 10:00 AM)
Minimum temperature yesterday: 61 °F (at 2:00 AM)
Average temperature yesterday: 63 °F

Past Weeks' High & Low Weather Summary

 TemperatureHumidityPressure
High81 °F (Jun 16, 2:00 PM)100% (Jun 28, 11:00 AM)30.19 "Hg (Jun 28, 11:00 AM)
Low54 °F (Jun 20, 5:00 AM)38% (Jun 26, 8:00 PM)29.63 "Hg (Jun 23, 5:00 AM)
Average66 °F69%29.93 "Hg
* Reported Jun 15 11:00 PM — Jun 30 11:00 PM, Mississauga, Weather by CustomWeather, © 2015

Note: Actual official high and low records may vary slightly from our data, if they occured in-between our weather recording intervals... More about our weather records

Advertising

Mississauga weather history for previous 24 hours

 ConditionsComfort  
Time TempWeatherWind HumidityBarometerVisibility
11:00 PM
Tue, Jun 30
63 °FFog.No wind88%29.77 "Hg6 mi
10:00 PM63 °FFog.3 mph88%29.77 "Hg6 mi
9:00 PM63 °FFog.5 mph88%29.75 "Hg6 mi
8:00 PM63 °FLow clouds.6 mph88%29.76 "Hg10 mi
7:00 PM64 °FBroken clouds.5 mph83%29.76 "Hg15 mi
6:00 PM63 °FDrizzle. Overcast.5 mph88%29.76 "Hg15 mi
5:00 PM63 °FLow clouds.9 mph88%29.77 "Hg12 mi
4:00 PM63 °FLow clouds.6 mph88%29.78 "Hg12 mi
3:00 PM63 °FLight rain. Mostly cloudy.8 mph88%29.79 "Hg12 mi
2:00 PM64 °FOvercast.12 mph83%29.80 "Hg15 mi
1:00 PM64 °FOvercast.12 mph83%29.81 "Hg15 mi
12:00 PM64 °FMostly cloudy.12 mph83%29.81 "Hg15 mi
11:00 AM66 °FMore clouds than sun.10 mph73%29.82 "Hg15 mi
10:00 AM68 °FBroken clouds.9 mph69%29.83 "Hg15 mi
9:00 AM64 °FBroken clouds.7 mph78%29.84 "Hg15 mi
8:00 AM63 °FOvercast.7 mph77%29.85 "Hg15 mi
7:00 AM63 °FPartly sunny.3 mph77%29.84 "Hg12 mi
6:00 AM61 °FPassing clouds.5 mph88%29.84 "Hg15 mi
5:00 AM61 °FPassing clouds.5 mph88%29.84 "Hg15 mi
4:00 AM61 °FPassing clouds.2 mph88%29.85 "Hg15 mi
3:00 AM61 °FPassing clouds.2 mph88%29.85 "Hg15 mi
2:00 AM61 °FPassing clouds.5 mph88%29.87 "Hg15 mi
1:00 AM63 °FPassing clouds.5 mph83%29.88 "Hg15 mi
Weather by CustomWeather, © 2015

See weather overviewHow to use our weather pages